[[[{"header":{"parameterUnit":"kt","parameterCategory":2,"dx":1,"dy":1,"la1":30.253999710083008,"la2":30.299108505249023,"lo1":-89.0895004272461,"lo2":-89.04439544677734,"nx":28,"ny":28,"refTime":"2022-09-18T21:00:00:Z","depth":0,"parameterNumber":1,"parameterNumberName":"U-component_of_WINDS"},"data":[-2.1666,-2.1825,-2.1842,-2.2031,-2.2079,-2.2212,-2.2266,-2.2337,-2.2399,-2.2562,-2.2659,-2.2695,-2.2766,-2.2888,-2.2996,-2.301,-2.3056,-2.3098,-2.3109,-2.2899,-2.2871,-2.2845,-2.2809,-2.3107,-2.3107,-2.3324,-2.3326,-2.3328,-2.151,-2.1558,-2.1663,-2.1777,-2.1867,-2.1836,-2.1925,-2.2004,-2.2125,-2.2202,-2.2298,-2.2444,-2.2562,-2.2621,-2.2739,-2.2816,-2.281,-2.2847,-2.2844,-2.2856,-2.2631,-2.2593,-2.2849,-2.2849,-2.2849,-2.2849,-2.2849,-2.2849,-2.1231,-2.1324,-2.1403,-2.1517,-2.1579,-2.1656,-2.175,-2.179,-2.1895,-2.2018,-2.202,-2.2158,-2.2241,-2.2393,-2.2449,-2.2559,-2.2523,-2.257,-2.2583,-2.2596,-2.2607,-2.2296,-2.258,-2.2579,-2.2578,-2.2578,-2.2577,0,-2.1032,-2.104,-2.1142,-2.1249,-2.1334,-2.1419,-2.1501,-2.156,-2.1585,-2.1671,-2.1797,-2.1874,-2.2025,-2.2148,-2.2263,-2.2312,-2.2295,-2.2293,-2.2327,-2.2331,-2.2318,-2.233,-2.1966,-2.2287,-2.2284,-2.2282,-2.2281,-2.228,-2.0755,-2.0862,-2.0953,-2.1022,-2.1071,-2.1183,-2.1254,-2.1268,-2.1344,-2.1448,-2.1532,-2.1653,-2.1752,-2.1954,-2.2004,-2.2119,-2.2112,-2.2233,-2.213,-2.2127,-2.2119,-2.2114,-2.2126,-2.2254,-2.2258,-2.226,-2.2263,0,-2.0598,-2.0626,-2.0798,-2.0878,-2.0901,-2.1014,-2.1084,-2.1179,-2.1209,-2.1346,-2.1378,-2.1427,-2.1552,-2.1583,-2.1733,-2.1746,-2.1937,-2.1925,-2.1908,-2.1909,-2.2022,-2.2013,-2.238,-2.2431,-2.2118,-2.212,-2.2123,0,-2.0375,-2.0515,-2.0549,-2.0647,-2.0804,-2.0815,-2.097,-2.1011,-2.1082,-2.1189,-2.117,-2.1272,-2.1296,-2.1403,-2.1423,-2.1583,-2.161,-2.1632,-2.1636,-2.1636,-2.1634,-2.1681,-2.1669,-2.1637,-2.1635,-2.1633,-2.1632,0,-2.0129,-2.0311,-2.0469,-2.0516,-2.0617,-2.0692,-2.0738,-2.0817,-2.0888,-2.0984,-2.103,-2.1142,-2.1204,-2.1292,-2.1316,-2.1245,-2.1512,-2.142,-2.1534,-2.1534,-2.1596,-2.1593,-2.1906,-2.163,-2.1629,-2.1628,-2.1628,0,-1.9954,-2.0048,-2.0273,-2.0357,-2.0405,-2.051,-2.062,-2.0717,-2.0802,-2.082,-2.0897,-2.089,-2.103,-2.0937,-2.1132,-2.1033,-2.1096,-2.1128,-2.1137,-2.1156,-2.1052,-2.1229,-2.152,-2.1554,-2.1167,-2.1163,-2.116,0,-1.9667,-1.9901,-1.9912,-2.0127,-2.024,-2.0211,-2.0328,-2.0404,-2.0438,-2.0541,-2.0579,-2.0697,-2.0633,-2.0675,-2.0767,-2.0813,-2.0941,-2.0796,-2.0951,-2.0956,-2.0932,-2.1199,-2.1237,-2.1452,-2.1111,-2.1116,-2.112,0,-1.9448,-1.9568,-1.9606,-1.966,-1.976,-1.9855,-1.9989,-2.0107,-2.0175,-2.0262,-2.0377,-2.0542,-2.0502,-2.0572,-2.0579,-2.0673,-2.0855,-2.0618,-2.0621,-2.0663,-2.1088,-2.1123,-2.1159,-2.0839,-2.0845,-2.085,-2.1081,0,-1.9184,-1.9305,-1.9406,-1.9526,-1.9603,-1.9738,-1.9769,-1.9847,-1.9844,-1.9878,-2.0047,-2.0119,-2.0243,-2.0291,-2.0291,-2.0495,-2.0467,-2.0423,-2.0339,-2.0512,-2.059,-2.0621,-2.0221,-2.0218,-2.0217,-2.0215,0,0,-1.8905,-1.9078,-1.9086,-1.9216,-1.9282,-1.9251,-1.9394,-1.9455,-1.9581,-1.9629,-1.958,-1.9825,-1.9888,-2.0091,-2.0147,-2.0196,-2.0238,-2.0176,-2.0429,-2.0452,-2.0474,-2.0557,-2.0588,-2.0212,-2.0211,-2.021,-2.021,0,-1.8816,-1.8873,-1.9012,-1.9075,-1.9168,-1.9196,-1.9229,-1.9318,-1.9347,-1.9511,-1.9487,-1.9593,-1.9788,-1.9858,-1.9919,-2.015,-2.013,-2.0185,-2.03,-2.0408,-2.0434,-2.0457,-2.0543,-2.0573,-2.0205,-2.0205,-2.0205,0,-1.8609,-1.8672,-1.8741,-1.8888,-1.895,-1.9067,-1.8984,-1.9111,-1.9199,-1.9164,-1.9329,-1.9374,-1.947,-1.9657,-1.9742,-1.9702,-2.003,-1.9931,-1.9945,-1.9956,-2.0063,-2.0095,-2.0122,-1.9754,-1.9753,-1.9751,0,0,-1.8528,-1.8639,-1.8713,-1.8871,-1.8911,-1.8955,-1.9021,-1.9025,-1.911,-1.9144,-1.9202,-1.9287,-1.9401,-1.9477,-1.9586,-1.9785,-1.9808,-1.9874,-1.9896,-1.9913,-1.9934,-2.0045,-2.0076,-1.9745,-1.9745,-1.9744,0,0,-1.8491,-1.8581,-1.8563,-1.875,-1.8829,-1.8916,-1.9012,-1.8994,-1.9094,-1.9083,-1.91,-1.9124,-1.9299,-1.9345,-1.9254,-1.9557,-1.9472,-1.9495,-1.9521,-1.9548,-1.9569,-1.9556,-1.9184,0,0,0,0,0,-1.8416,-1.8569,-1.8552,-1.8588,-1.8775,-1.8924,-1.8949,-1.8964,-1.8903,-1.898,-1.9026,-1.8998,-1.93,-1.9219,-1.9257,-1.936,-1.9661,-1.9676,-1.969,-1.9771,-1.9799,-1.9823,0,0,0,0,0,0,-1.843,-1.8474,-1.8548,-1.8639,-1.8682,-1.8919,-1.8819,-1.8828,-1.8896,-1.8888,-1.8989,-1.9001,-1.9019,-1.9202,-1.9235,-1.9333,-1.9172,-1.9667,-1.9679,-1.9691,-1.978,-1.9803,-1.9823,0,0,0,0,0,-1.8441,-1.8476,-1.8772,-1.8637,-1.8674,-1.8732,-1.8814,-1.882,-1.8873,-1.8945,-1.8955,-1.8879,-1.9022,-1.9051,-1.9222,-1.9317,-1.915,-1.9162,-1.9675,-1.9685,-1.9694,-1.9792,0,0,0,0,0,0,-1.845,-1.8485,-1.878,-1.8792,-1.858,-1.8719,-1.8741,-1.8813,-1.8927,-1.8938,-1.8835,-1.8827,-1.9025,-1.9047,-1.907,-1.9311,-1.9131,-1.9143,-1.9151,-1.9683,-1.969,-1.9697,0,0,0,0,0,0,-1.8466,-1.8495,-1.8786,-1.8713,-1.8716,-1.8707,-1.8727,-1.8874,-1.8929,-1.881,-1.8807,-1.883,-1.8992,-1.9046,-1.9063,-1.9293,-1.9116,-1.9129,-1.9137,-1.9142,-1.9689,-1.9695,0,0,0,0,0,0,-1.8478,-1.8504,-1.871,-1.8713,-1.8716,-1.8851,-1.8838,-1.903,-1.8862,-1.8806,-1.8848,-1.8841,-1.8992,-1.9009,-1.9058,-1.9281,-1.929,-1.9117,-1.9125,-1.9131,-1.9135,0,0,0,0,0,0,0,-1.8489,-1.8316,-1.8709,-1.8713,-1.8715,-1.8902,-1.8905,-1.8908,-1.8861,-1.8855,-1.8849,-1.8844,-1.9048,-1.9061,-1.9074,-1.9272,0,0,-1.9116,-1.9122,0,0,0,0,0,0,0,0,-1.8306,-1.8314,-1.8709,-1.8712,-1.8714,-1.8902,-1.8905,-1.8907,-1.886,-1.8855,-1.8851,-1.8846,-1.9051,-1.9062,-1.9073,0,0,0,0,0,0,0,0,0,0,0,0,0,0,0,-1.8709,-1.8711,0,-1.8902,-1.8905,-1.8907,-1.8859,-1.8855,-1.8852,-1.8848,-1.9054,-1.9063,-1.9072,0,0,0,0,0,0,0,0,0,0,0,0,0,0,0,0,0,0,0,0,0,0,0,0,0,0,0,0,0,0,0,0,0,0,0,0,0,0,0,0,0,0,0,0,0,0,0,0,0,0,0,0,0,0,0,0,0,0,0,0,0,0,0,0,0,0,0,0,0]}],[{"header":{"parameterUnit":"kt","parameterCategory":2,"dx":1,"dy":1,"la1":30.253999710083008,"la2":30.299108505249023,"lo1":-89.0895004272461,"lo2":-89.04439544677734,"nx":28,"ny":28,"refTime":"2022-09-18T21:00:00:Z","depth":0,"parameterNumber":2,"parameterNumberName":"V-component_of_WINDS"},"data":[-7.1962,-7.2158,-7.219,-7.2427,-7.2495,-7.2662,-7.2731,-7.2823,-7.2904,-7.3104,-7.3224,-7.3273,-7.3363,-7.3511,-7.3641,-7.3659,-7.3712,-7.3759,-7.3773,-7.3535,-7.3504,-7.3475,-7.3432,-7.377,-7.3771,-7.4015,-7.4017,-7.4019,-7.1786,-7.1856,-7.199,-7.2142,-7.2257,-7.2231,-7.2348,-7.2445,-7.2594,-7.2695,-7.2814,-7.2992,-7.3135,-7.321,-7.3352,-7.3442,-7.3437,-7.3478,-7.3472,-7.3487,-7.3234,-7.3188,-7.3481,-7.348,-7.348,-7.348,-7.348,-7.348,-7.1473,-7.1589,-7.1699,-7.1846,-7.193,-7.2031,-7.2146,-7.2205,-7.2335,-7.2489,-7.2499,-7.2667,-7.2771,-7.2956,-7.3024,-7.3154,-7.3113,-7.3167,-7.3181,-7.3194,-7.3206,-7.2851,-7.3179,-7.3178,-7.3178,-7.3177,-7.3177,0,-7.1254,-7.1272,-7.1403,-7.1544,-7.1652,-7.1764,-7.187,-7.1942,-7.1988,-7.2094,-7.2249,-7.2342,-7.2526,-7.2674,-7.2812,-7.2873,-7.2854,-7.2854,-7.2892,-7.2891,-7.2873,-7.2886,-7.2473,-7.2845,-7.2842,-7.284,-7.2838,-7.2837,-7.0941,-7.1073,-7.1202,-7.129,-7.1356,-7.1497,-7.1587,-7.1618,-7.1711,-7.1846,-7.1945,-7.2094,-7.2214,-7.2455,-7.2518,-7.2655,-7.2647,-7.2786,-7.2667,-7.2661,-7.265,-7.2642,-7.2656,-7.2808,-7.2812,-7.2815,-7.2817,0,-7.0762,-7.0812,-7.1025,-7.114,-7.1173,-7.1308,-7.1405,-7.1521,-7.1564,-7.173,-7.177,-7.1837,-7.1987,-7.2029,-7.2208,-7.2225,-7.2446,-7.2434,-7.2411,-7.2411,-7.254,-7.2528,-7.2951,-7.3008,-7.2656,-7.266,-7.2662,0,-7.0515,-7.0686,-7.075,-7.0872,-7.1062,-7.1089,-7.1277,-7.1333,-7.1424,-7.1554,-7.154,-7.1662,-7.1696,-7.1824,-7.1849,-7.2037,-7.207,-7.2095,-7.2099,-7.2097,-7.2094,-7.2146,-7.213,-7.2104,-7.2102,-7.21,-7.2098,0,-7.0231,-7.0465,-7.0662,-7.0723,-7.0862,-7.0953,-7.1015,-7.1117,-7.1204,-7.1323,-7.138,-7.1516,-7.159,-7.1695,-7.1726,-7.1644,-7.1957,-7.185,-7.1981,-7.1981,-7.2049,-7.2045,-7.2409,-7.2095,-7.2095,-7.2094,-7.2093,0,-7.0039,-7.0162,-7.044,-7.0555,-7.0615,-7.0744,-7.0881,-7.1001,-7.111,-7.1135,-7.1228,-7.1223,-7.1391,-7.1283,-7.1514,-7.1398,-7.1472,-7.151,-7.152,-7.1539,-7.1416,-7.1617,-7.1959,-7.1997,-7.1554,-7.155,-7.1546,0,-6.97,-6.9993,-7.0019,-7.0282,-7.0424,-7.04,-7.0543,-7.0639,-7.0685,-7.081,-7.0858,-7.1,-7.0928,-7.0978,-7.1087,-7.1143,-7.1293,-7.1123,-7.1301,-7.1307,-7.1275,-7.159,-7.1631,-7.1879,-7.1489,-7.1495,-7.1499,0,-6.9443,-6.9611,-6.9656,-6.9728,-6.9861,-6.9979,-7.0143,-7.0291,-7.0373,-7.0482,-7.0621,-7.082,-7.0774,-7.0857,-7.0867,-7.0978,-7.1192,-7.0913,-7.0916,-7.0962,-7.1463,-7.1502,-7.1543,-7.1174,-7.118,-7.1186,-7.1454,0,-6.9144,-6.9297,-6.942,-6.9577,-6.9675,-6.9841,-6.9888,-6.9984,-6.9985,-7.0029,-7.0232,-7.0321,-7.0469,-7.0526,-7.0528,-7.0769,-7.0735,-7.0684,-7.0582,-7.0788,-7.0877,-7.0914,-7.0445,-7.0442,-7.044,-7.0438,0,0,-6.8807,-6.9027,-6.905,-6.9212,-6.9296,-6.9268,-6.9442,-6.952,-6.9678,-6.9736,-6.9679,-6.9973,-7.0048,-7.029,-7.0357,-7.0417,-7.0464,-7.039,-7.0689,-7.0717,-7.0743,-7.0838,-7.0875,-7.0434,-7.0433,-7.0432,-7.0432,0,-6.8708,-6.8788,-6.896,-6.9042,-6.9165,-6.9204,-6.9245,-6.9361,-6.9397,-6.9596,-6.9569,-6.9696,-6.993,-7.0013,-7.0086,-7.0362,-7.0334,-7.0403,-7.0538,-7.0664,-7.0695,-7.0723,-7.0822,-7.0857,-7.0426,-7.0426,-7.0427,0,-6.8464,-6.8551,-6.8639,-6.8828,-6.8908,-6.9053,-6.8959,-6.9116,-6.9224,-6.9183,-6.9381,-6.9437,-6.9551,-6.9773,-6.9874,-6.9826,-7.0213,-7.0098,-7.0114,-7.0127,-7.0251,-7.0288,-7.0321,-6.9886,-6.9884,-6.9882,0,0,-6.8371,-6.8514,-6.8615,-6.8811,-6.8863,-6.8922,-6.9004,-6.9013,-6.9118,-6.916,-6.9231,-6.9332,-6.9468,-6.9558,-6.9688,-6.9925,-6.9951,-7.003,-7.0056,-7.0076,-7.01,-7.023,-7.0266,-6.9875,-6.9875,-6.9874,0,0,-6.8327,-6.8453,-6.8436,-6.8669,-6.877,-6.8882,-6.8999,-6.898,-6.9102,-6.9088,-6.9109,-6.9137,-6.9345,-6.9401,-6.9292,-6.9652,-6.955,-6.9577,-6.9608,-6.9641,-6.9666,-6.9649,-6.9205,0,0,0,0,0,-6.8249,-6.8437,-6.842,-6.8466,-6.8706,-6.8891,-6.8922,-6.8945,-6.8873,-6.8965,-6.9021,-6.8986,-6.9346,-6.9251,-6.9295,-6.9416,-6.9775,-6.9792,-6.9809,-6.9906,-6.994,-6.9968,0,0,0,0,0,0,-6.8267,-6.8324,-6.8416,-6.8535,-6.8589,-6.8885,-6.8768,-6.8779,-6.8864,-6.8854,-6.8976,-6.8989,-6.9011,-6.9229,-6.9269,-6.9384,-6.9192,-6.9782,-6.9797,-6.981,-6.9918,-6.9945,-6.9969,0,0,0,0,0,-6.8282,-6.8327,-6.8705,-6.8532,-6.8579,-6.8655,-6.8761,-6.8769,-6.8835,-6.8922,-6.8934,-6.8845,-6.9014,-6.9049,-6.9253,-6.9365,-6.9165,-6.918,-6.9791,-6.9803,-6.9814,-6.9931,0,0,0,0,0,0,-6.8293,-6.8336,-6.8715,-6.873,-6.8463,-6.8639,-6.8668,-6.8761,-6.8898,-6.8912,-6.8791,-6.8782,-6.9018,-6.9044,-6.9071,-6.9358,-6.9143,-6.9158,-6.9167,-6.98,-6.981,-6.9818,0,0,0,0,0,0,-6.8312,-6.8349,-6.8723,-6.8634,-6.8639,-6.8624,-6.865,-6.8825,-6.89,-6.8759,-6.8756,-6.8786,-6.8977,-6.9042,-6.9063,-6.9337,-6.9126,-6.914,-6.915,-6.9156,-6.9808,-6.9815,0,0,0,0,0,0,-6.8328,-6.836,-6.863,-6.8634,-6.8638,-6.8809,-6.878,-6.9023,-6.8826,-6.8753,-6.8809,-6.8801,-6.8976,-6.8997,-6.9058,-6.9323,-6.9333,-6.9126,-6.9136,-6.9143,-6.9147,0,0,0,0,0,0,0,-6.8341,-6.8122,-6.8626,-6.8634,-6.8638,-6.8869,-6.8873,-6.8877,-6.8824,-6.8817,-6.881,-6.8804,-6.9044,-6.906,-6.9076,-6.9312,0,0,-6.9125,-6.9132,0,0,0,0,0,0,0,0,-6.8109,-6.8118,-6.8626,-6.8629,-6.8632,-6.887,-6.8873,-6.8876,-6.8823,-6.8817,-6.8812,-6.8807,-6.9048,-6.9061,-6.9074,0,0,0,0,0,0,0,0,0,0,0,0,0,0,0,-6.8627,-6.8629,0,-6.887,-6.8873,-6.8876,-6.8822,-6.8817,-6.8813,-6.8809,-6.9052,-6.9062,-6.9073,0,0,0,0,0,0,0,0,0,0,0,0,0,0,0,0,0,0,0,0,0,0,0,0,0,0,0,0,0,0,0,0,0,0,0,0,0,0,0,0,0,0,0,0,0,0,0,0,0,0,0,0,0,0,0,0,0,0,0,0,0,0,0,0,0,0,0,0,0]}]]]